Regional Weather Roundup
Issued by NWS

Home | Current Version | Previous Version | Graphics & Text | Print | Product List | Glossary On
Versions: 1 2 3 4 5 6 7 8 9 10 11 12 13 14 15 16 17 18 19 20 21 22 23 24 25 26 27 28 29 30 31 32 33 34 35 36 37 38 39 40 41 42 43 44 45 46 47 48 49 50
000
ASUS45 KBOU 170107
RWRCO

WEATHER ROUNDUP FOR COLORADO
NATIONAL WEATHER SERVICE DENVER/BOULDER CO
700 PM MDT TUE SEP 16 2014

NOTE: "FAIR" INDICATES FEW OR NO CLOUDS BELOW 12000 FEET WITH NO
SIGNIFICANT WEATHER AND/OR OBSTRUCTIONS TO VISIBILITY.

COZ001>005-013-030-031-170200-
...NORTHWEST COLORADO...

CITY           SKY/WX    TMP DP  RH WIND       PRES   REMARKS
CRAIG          CLEAR     68  42  38 S5        30.16F
HAYDEN         CLEAR     75  30  19 W3        30.19F
MEEKER         CLEAR     72  41  32 SW8       30.18S
MOUNT WERNER   NOT AVBL
STEAMBOAT SPGS CLEAR     73  35  25 S3        30.22S
WALDEN         CLEAR     64  28  25 CALM      30.32S
$$

COZ006>008-011-170200-
...WEST CENTRAL VALLEYS...

CITY           SKY/WX    TMP DP  RH WIND       PRES   REMARKS
GRAND JUNCTION CLEAR     81  43  26 W5        30.05F
MONTROSE       CLEAR     80  40  23 N5        30.14S
EAGLE          PTCLDY    75  39  27 SW6       30.21S
RIFLE          CLEAR     77  47  34 CALM      30.11S
DELTA          CLEAR     86  31  13 W9        30.08S
NUCLA          CLEAR     79  41  25 NW6       30.17S
$$

COZ017>023-064>068-170200-
...SOUTHWEST COLORADO...

CITY           SKY/WX    TMP DP  RH WIND       PRES   REMARKS
DURANGO        PTCLDY    75  43  31 N5        30.19S
CORTEZ         CLEAR     72  50  45 S5        30.16S
PAGOSA SPRINGS PTCLDY    69  38  32 S9        30.30R
TELLURIDE      NOT AVBL
WOLF CREEK PAS NOT AVBL
$$

COZ009-010-012-014-032>034-037-058>063-170200-
...CENTRAL COLORADO...

CITY           SKY/WX    TMP DP  RH WIND       PRES   REMARKS
ASPEN          CLEAR     63  35  35 W6          N/A
BUENA VISTA    PTCLDY    70  28  20 CALM      30.28S
COPPER MTN     PTCLDY    55  27  33 W16       30.62S
BERTHOUD PASS  FAIR      45  43  93 NW9       30.67F
COTTONWOOD PAS PTCLDY    64  23  20 CALM      30.44S
GUNNISON       CLEAR     72  34  25 N3        30.28S
KREMMLING      CLEAR     70  19  14 NW5       30.27S
LEADVILLE      PTCLDY    61  28  28 N9        30.43S
SALIDA         NOT AVBL
SUNLIGHT       CLEAR     59  34  38 CALM      30.55S
WILKERSON PASS NOT AVBL
$$

COZ069>075-170200-
...SAN LUIS VALLEY/SANGRE DE CRISTO MOUNTAINS...

CITY           SKY/WX    TMP DP  RH WIND       PRES   REMARKS
ALAMOSA        PTCLDY    66  41  40 SW8       30.24S
LA VETA PASS   NOT AVBL
SAGUACHE       PTCLDY    73  36  25 S7        30.27R
$$

COZ035-036-038>040-170200-
...NORTHERN COLORADO FRONT RANGE...

CITY           SKY/WX    TMP DP  RH WIND       PRES   REMARKS
DENVER INTL AP PTCLDY    79  34  19 NE3       30.10S
DMNS CITY PARK   N/A     74  37  26 E2        30.10S
AURORA         PTCLDY    73  39  29 E6        30.13S
FRONT RANGE AP NOT AVBL
ERIE MUNI ARPT PTCLDY    76  41  28 SE5       30.08S
BOULDER MUN AP PTCLDY    77  45  31 SW5       30.09S
CENTENNIAL     PTCLDY    75  37  25 E6        30.14S
BROOMFIELD     PTCLDY    77  37  24 E3        30.13S
FORT COLLINS   PTCLDY    77  45  31 S3        30.07R
LONGMONT       PTCLDY    75  53  46 W3        30.09S
$$

COZ041-046-047-076>085-087-088-170200-
...PIKES PEAK/PALMER DIVIDE AND SOUTHERN FOOTHILLS...

CITY           SKY/WX    TMP DP  RH WIND       PRES   REMARKS
COLO. SPRINGS  MOCLDY    76  39  26 E8        30.18S
A. F. ACADEMY  MOCLDY    73  38  27 SE6       30.20R
ELLICOTT       NOT AVBL
FALCON         MOCLDY    71  37  28 CALM      30.24S
FORT CARSON    CLOUDY    76  40  27 SE6       30.15R
LIMON          PTCLDY    71  36  27 NE10      30.11S
MONUMENT HILL  MOCLDY    66  37  34 E6        30.23F
TRINIDAD       CLEAR     79  37  22 SW3       30.13S
$$

COZ042>045-048>051-090-091-170200-
...NORTHEAST COLORADO...

CITY           SKY/WX    TMP DP  RH WIND       PRES   REMARKS
GREELEY ARPT   PTCLDY    79  37  22 SE7       30.06R
AKRON          CLEAR     74  39  28 E10       30.06F
BURLINGTON     CLEAR     77  45  32 N8        30.04R
WRAY           CLEAR     71  49  44 NE8       30.00F
STERLING       CLEAR     79  46  31 SE5       30.01S
HOLYOKE        CLEAR     72  54  53 E6        30.01S
FORT MORGAN    CLEAR     71  40  31 E6        30.06S
$$

COZ086-089-092>099-170200-
...SOUTHEAST COLORADO...

CITY           SKY/WX    TMP DP  RH WIND       PRES   REMARKS
PUEBLO         PTCLDY    83  38  20 SE9       30.04S
LA JUNTA       CLEAR     79  44  28 E7        30.01S
LAMAR          CLEAR     79  46  31 S10       29.97S
SPRINGFIELD      N/A     73  57  57 S17       30.05F
$$


USA.gov is the U.S. government's official web portal to all federal, state and local government web resources and services.